Date String (YYYY-MM-DD hh:mm:ss) UTC,Instrument flags,absolute air pressure of the measurement (hPa),sample flow rate (lpm),inlet stack bypass flow (lpm),air temperature of the measurement (°C),ambient temperature measured by the external sensor (°C),aerosol sample conditioner tube jacket temperature (°C),OPC LED temperature (°C),internal box temperature (°C),relative humidity of the measurement (%),span deviation,mass concentration of particles derived from Lorenz-Mie calculation of OPC scattering (μg/m³),mass concentration of particles derived from Lorenz-Mie calculation of OPC scattering (μg/m³),mass concentration of particles derived from Lorenz-Mie calculation of OPC scattering (μg/m³)
DateTimeUTC,F1_M11,P_M11,Q1_M11,Q2_M11,T1_M11,T2_M11,T3_M11,T4_M11,T5_M11,U1_M11,ZSPAN_M11,X2_M11,X0_M11,X1_M11
2023-12-28 02:00:00,SystemResetWarning,0832.8,5.00,000.00,022.9,021.9,000.0,031.2,024.1,9.4,0000.0,0001.80,0006.74,0001.20
2023-12-28 02:01:00,SystemResetWarning,0832.8,5.00,000.00,022.9,021.9,000.0,031.2,024.0,9.4,0000.0,0001.75,0006.31,0001.20
2023-12-28 02:02:00,SystemResetWarning,0832.7,5.00,000.00,022.9,021.9,000.0,031.2,024.0,9.4,0000.0,0001.71,0006.19,0001.18
2023-12-28 02:03:00,SystemResetWarning,0832.7,5.01,000.00,022.8,021.9,000.0,031.2,023.9,9.4,0000.0,0001.72,0006.21,0001.17
2023-12-28 02:04:00,SystemResetWarning,0832.7,5.00,000.00,022.8,021.8,000.0,031.1,023.9,9.4,0000.0,0001.74,0006.25,0001.16
2023-12-28 02:05:00,SystemResetWarning,0832.7,5.00,000.00,022.8,021.8,000.0,031.1,023.9,9.4,0000.0,0001.77,0006.09,0001.15
2023-12-28 02:06:00,SystemResetWarning,0832.7,5.00,000.00,022.8,021.8,000.0,031.1,023.9,9.4,0000.0,0001.82,0007.97,0001.17
2023-12-28 02:07:00,SystemResetWarning,0832.7,5.00,000.00,022.7,021.7,000.0,031.1,023.8,9.4,0000.0,0001.82,0008.10,0001.18
2023-12-28 02:08:00,SystemResetWarning,0832.7,5.00,000.00,022.7,021.7,000.0,031.1,023.8,9.5,0000.0,0001.88,0008.26,0001.23
2023-12-28 02:09:00,SystemResetWarning,0832.7,5.00,000.00,022.7,021.6,000.0,031.1,023.8,9.5,0000.0,0001.96,0008.46,0001.28
2023-12-28 02:10:00,SystemResetWarning,0832.6,5.00,000.00,022.6,021.6,000.0,031.1,023.7,9.5,0000.0,0002.02,0008.79,0001.34
2023-12-28 02:11:00,SystemResetWarning,0832.6,5.00,000.00,022.6,021.5,000.0,031.1,023.7,9.5,0000.0,0002.12,0008.64,0001.39
2023-12-28 02:12:00,SystemResetWarning,0832.6,5.00,000.00,022.6,021.5,000.0,031.0,023.6,9.6,0000.0,0002.23,0008.63,0001.44
2023-12-28 02:13:00,SystemResetWarning,0832.6,5.00,000.00,022.5,021.4,000.0,031.0,023.6,9.6,0000.0,0002.29,0008.65,0001.50
2023-12-28 02:14:00,SystemResetWarning,0832.6,5.00,000.00,022.5,021.4,000.0,031.0,023.5,9.6,0000.0,0002.33,0008.68,0001.56
2023-12-28 02:15:00,SystemResetWarning,0832.7,5.00,000.00,022.5,021.3,000.0,031.0,023.5,9.6,0000.0,0002.43,0009.37,0001.63
2023-12-28 02:16:00,SystemResetWarning,0832.7,5.00,000.00,022.4,021.3,000.0,031.0,023.5,9.7,0000.0,0002.52,0009.37,0001.71
2023-12-28 02:17:00,SystemResetWarning,0832.7,5.00,000.00,022.4,021.2,000.0,030.9,023.4,9.7,0000.0,0002.60,0008.36,0001.76
2023-12-28 02:18:00,SystemResetWarning,0832.7,5.00,000.00,022.4,021.2,000.0,030.9,023.4,9.7,0000.0,0002.70,0007.81,0001.80
2023-12-28 02:19:00,SystemResetWarning,0832.6,5.00,000.00,022.3,021.2,000.0,030.9,023.4,9.7,0000.0,0002.70,0007.76,0001.80
2023-12-28 02:20:00,SystemResetWarning,0832.6,5.01,000.00,022.3,021.2,000.0,030.9,023.3,9.7,0000.0,0002.68,0008.67,0001.81
2023-12-28 02:21:00,SystemResetWarning,0832.7,5.01,000.00,022.3,021.1,000.0,030.8,023.3,9.8,0000.0,0002.72,0009.12,0001.83
2023-12-28 02:22:00,SystemResetWarning,0832.7,5.00,000.00,022.3,021.1,000.0,030.8,023.3,9.8,0000.0,0002.73,0009.16,0001.84
2023-12-28 02:23:00,SystemResetWarning,0832.7,4.99,000.00,022.2,021.1,000.0,030.8,023.2,9.8,0000.0,0002.70,0009.16,0001.85
2023-12-28 02:24:00,SystemResetWarning,0832.9,4.99,000.00,022.2,021.0,000.0,030.8,023.2,9.8,0000.0,0002.69,0009.67,0001.85
2023-12-28 02:25:00,SystemResetWarning,0832.7,5.00,000.00,022.2,020.9,000.0,030.7,023.2,9.8,0000.0,0002.68,0010.01,0001.84
2023-12-28 02:26:00,SystemResetWarning,0832.9,5.01,000.00,022.2,020.9,000.0,030.7,023.2,9.8,0000.0,0002.62,0009.71,0001.82
2023-12-28 02:27:00,SystemResetWarning,0832.8,5.01,000.00,022.1,020.9,000.0,030.7,023.2,9.8,0000.0,0002.61,0009.55,0001.79
2023-12-28 02:28:00,SystemResetWarning,0832.8,5.01,000.00,022.1,020.9,000.0,030.7,023.1,9.9,0000.0,0002.49,0009.17,0001.75
2023-12-28 02:29:00,SystemResetWarning,0832.8,5.01,000.00,022.1,020.9,000.0,030.6,023.1,9.9,0000.0,0002.41,0009.03,0001.73
2023-12-28 02:30:00,SystemResetWarning,0832.7,5.00,000.00,022.1,020.9,000.0,030.6,023.1,9.9,0000.0,0002.43,0008.83,0001.73
2023-12-28 02:31:00,SystemResetWarning,0832.7,5.00,000.00,022.1,020.9,000.0,030.6,023.2,9.9,0000.0,0002.40,0008.03,0001.70
2023-12-28 02:32:00,SystemResetWarning,0832.7,5.00,000.00,022.1,020.9,000.0,030.6,023.2,9.9,0000.0,0002.38,0008.13,0001.67
2023-12-28 02:33:00,SystemResetWarning,0832.7,5.00,000.00,022.0,020.9,000.0,030.6,023.2,10.0,0000.0,0002.30,0008.23,0001.63
2023-12-28 02:34:00,SystemResetWarning,0832.7,4.99,000.00,022.0,020.9,000.0,030.5,023.2,10.0,0000.0,0002.27,0008.24,0001.61
2023-12-28 02:35:00,SystemResetWarning,0832.6,5.00,000.00,022.0,020.9,000.0,030.5,023.2,10.0,0000.0,0002.29,0007.77,0001.59
2023-12-28 02:36:00,SystemResetWarning,0832.6,5.00,000.00,022.0,020.9,000.0,030.5,023.2,10.0,0000.0,0002.28,0007.36,0001.58
2023-12-28 02:37:00,SystemResetWarning,0832.7,5.00,000.00,022.0,020.9,000.0,030.5,023.2,10.0,0000.0,0002.30,0007.39,0001.58
2023-12-28 02:38:00,SystemResetWarning,0832.6,5.00,000.00,022.0,020.9,000.0,030.5,023.2,10.1,0000.0,0002.23,0006.88,0001.55
2023-12-28 02:39:00,SystemResetWarning,0832.6,5.00,000.00,022.0,020.9,000.0,030.5,023.1,10.1,0000.0,0002.19,0006.82,0001.52
2023-12-28 02:40:00,SystemResetWarning,0832.6,5.01,000.00,021.9,020.9,000.0,030.4,023.1,10.1,0000.0,0002.17,0006.88,0001.51
2023-12-28 02:41:00,SystemResetWarning,0832.6,5.00,000.00,021.9,020.8,000.0,030.4,023.1,10.1,0000.0,0002.12,0006.89,0001.49
2023-12-28 02:42:00,SystemResetWarning,0832.6,5.00,000.00,021.9,020.8,000.0,030.4,023.1,10.1,0000.0,0002.12,0006.69,0001.47
2023-12-28 02:43:00,SystemResetWarning,0832.6,5.00,000.00,021.9,020.8,000.0,030.4,023.1,10.2,0000.0,0002.04,0005.05,0001.47
2023-12-28 02:44:00,SystemResetWarning,0832.6,5.00,000.00,021.9,020.8,000.0,030.4,023.0,10.2,0000.0,0002.03,0004.59,0001.46
2023-12-28 02:45:00,SystemResetWarning,0832.7,5.00,000.00,021.9,020.8,000.0,030.3,023.0,10.2,0000.0,0002.01,0004.46,0001.45
2023-12-28 02:46:00,SystemResetWarning,0832.7,5.00,000.00,021.9,020.7,000.0,030.3,023.0,10.2,0000.0,0001.98,0004.38,0001.45
2023-12-28 02:47:00,SystemResetWarning,0832.7,5.00,000.00,021.8,020.7,000.0,030.3,023.0,10.3,0000.0,0001.96,0004.56,0001.43
2023-12-28 02:48:00,SystemResetWarning,0832.7,5.00,000.00,021.8,020.7,000.0,030.3,023.1,10.3,0000.0,0001.91,0003.99,0001.39
2023-12-28 02:49:00,SystemResetWarning,0832.7,5.00,000.00,021.8,020.8,000.0,030.3,023.0,10.3,0000.0,0001.94,0005.06,0001.36
2023-12-28 02:50:00,SystemResetWarning,0832.6,5.00,000.00,021.8,020.8,000.0,030.3,023.0,10.3,0000.0,0001.97,0005.77,0001.34
2023-12-28 02:51:00,SystemResetWarning,0832.6,5.00,000.00,021.8,020.8,000.0,030.3,023.0,10.3,0000.0,0001.99,0005.91,0001.31
2023-12-28 02:52:00,SystemResetWarning,0832.7,5.00,000.00,021.8,020.8,000.0,030.3,023.0,10.4,0000.0,0001.95,0005.92,0001.27
2023-12-28 02:53:00,SystemResetWarning,0832.6,5.00,000.00,021.8,020.8,000.0,030.2,023.0,10.4,0000.0,0001.91,0006.00,0001.24
2023-12-28 02:54:00,SystemResetWarning,0832.6,5.00,000.00,021.8,020.8,000.0,030.2,022.9,10.4,0000.0,0001.92,0006.00,0001.21
2023-12-28 02:55:00,SystemResetWarning,0832.6,5.01,000.00,021.8,020.8,000.0,030.2,022.9,10.4,0000.0,0001.88,0005.91,0001.17
2023-12-28 02:56:00,SystemResetWarning,0832.7,5.01,000.00,021.8,020.8,000.0,030.2,023.0,10.4,0000.0,0001.93,0006.06,0001.15
2023-12-28 02:57:00,SystemResetWarning,0832.6,5.01,000.00,021.8,020.8,000.0,030.2,022.9,10.4,0000.0,0001.93,0006.05,0001.11
2023-12-28 02:58:00,SystemResetWarning,0832.6,5.00,000.00,021.8,020.8,000.0,030.2,022.9,10.4,0000.0,0001.91,0005.82,0001.09
2023-12-28 02:59:00,SystemResetWarning,0832.6,5.00,000.00,021.8,020.8,000.0,030.2,022.9,10.4,0000.0,0001.89,0005.77,0001.08
